Location: Ajisawe
(8.4333°N, 4.3833°E)
Time: 13:15:13
(UTC+00:00)

Courier 1B Rocket - Pass Details

Date: 25 April 2021
Orbit: 920 x 1202 km, 28.2° (Epoch: 07 May)

Event Time Altitude Azimuth Distance (km) Brightness Sun altitude
Rises 02:10:25 0° 276° (W) 4,016 - -46.9°
Reaches altitude 10° 02:13:42 10° 264° (W) 3,085 - -46.2°
Maximum altitude 02:19:55 26° 210° (SSW) 2,137 - -44.9°
Drops below altitude 10° 02:26:13 10° 156° (SSE) 3,126 - -43.5°
Exits shadow 02:28:56 - 146° (SE) 3,877 8.2 -42.9°
Sets 02:29:37 0° 144° (SE) 4,078 8.3 -42.8°
